| time (UTC) | temp F | wind direction | speed MPH | gust MPH | rain 1hr in | rain 24hr in | rain mn in | humidity % | barometer mb |
| 20260906164517 | 63 | 73 | 6.0 | 7.0 | 0.00 | 0.00 | 0.00 | 86 | 1019.7 |
| 20260906163003 | 63 | 70 | 5.0 | 5.0 | 0.00 | 0.00 | 0.00 | 86 | 1017.6 |
| 20260906161505 | 63 | 51 | 5.0 | 7.0 | 0.00 | 0.00 | 0.00 | 86 | 1019.7 |
| 20260906160008 | 63 | 70 | 8.0 | 9.0 | 0.00 | 0.00 | 0.00 | 85 | 1018.1 |
| 20260906154514 | 63 | 64 | 7.0 | 8.0 | 0.00 | 0.00 | 0.00 | 85 | 1019.7 |
| 20260906153019 | 63 | 48 | 8.0 | 10.0 | 0.00 | 0.00 | 0.00 | 84 | 1018.9 |
| 20260906151504 | 63 | 50 | 9.0 | 10.0 | 0.00 | 0.00 | 0.00 | 84 | 1019.9 |
| 20260906150004 | 63 | 56 | 8.0 | 11.0 | 0.00 | 0.00 | 0.00 | 84 | 1019.8 |
| 20260906144515 | 63 | 51 | 9.0 | 10.0 | 0.00 | 0.00 | 0.00 | 82 | 1017.1 |
| 20260906143016 | 63 | 53 | 10.0 | 12.0 | 0.00 | 0.00 | 0.00 | 83 | 1019.6 |
| 20260906141524 | 63 | 47 | 8.0 | 10.0 | 0.00 | 0.00 | 0.00 | 82 | 1019.8 |
| 20260906140009 | 63 | 51 | 8.0 | 9.0 | 0.00 | 0.00 | 0.00 | 80 | 1020.0 |
| 20260906134511 | 63 | 37 | 7.0 | 10.0 | 0.00 | 0.00 | 0.00 | 81 | 1019.9 |
| 20260906133014 | 63 | 39 | 8.0 | 9.0 | 0.00 | 0.00 | 0.00 | 81 | 1020.1 |
| 20260906131523 | 63 | 43 | 5.0 | 7.0 | 0.00 | 0.00 | 0.00 | 82 | 1020.1 |
| 20260906130028 | 63 | 37 | 7.0 | 7.0 | 0.00 | 0.00 | 0.00 | 83 | 1020.2 |
| 20260906124510 | 63 | 47 | 6.0 | 7.0 | 0.00 | 0.00 | 0.00 | 83 | 1019.8 |
| 20260906123033 | 63 | 27 | 4.0 | 5.0 | 0.00 | 0.00 | 0.00 | 82 | 1019.7 |
| 20260906121519 | 62 | 24 | 4.0 | 7.0 | 0.00 | 0.00 | 0.00 | 83 | 1019.4 |
| 20260906120025 | 62 | 24 | 5.0 | 7.0 | 0.00 | 0.00 | 0.00 | 84 | 1019.2 |
| 20260906114530 | 62 | 12 | 5.0 | 7.0 | 0.00 | 0.00 | 0.00 | 84 | 1019.1 |
| 20260906113009 | 62 | 1 | 5.0 | 6.0 | 0.00 | 0.00 | 0.00 | 85 | 1019.0 |
| 20260906111516 | 61 | 4 | 3.0 | 4.0 | 0.00 | 0.00 | 0.00 | 86 | 1018.8 |
| 20260906110023 | 61 | 8 | 2.0 | 3.0 | 0.00 | 0.00 | 0.00 | 88 | 1017.9 |
| 20260906104526 | 61 | 1 | 3.0 | 4.0 | 0.00 | 0.00 | 0.00 | 88 | 1018.4 |
| 20260906103032 | 61 | 1 | 2.0 | 3.0 | 0.00 | 0.00 | 0.00 | 89 | 1018.4 |
| 20260906101514 | 61 | 22 | 2.0 | 2.0 | 0.00 | 0.00 | 0.00 | 90 | 1018.4 |
| 20260906100017 | 61 | 23 | 1.0 | 2.0 | 0.00 | 0.00 | 0.00 | 90 | 1018.5 |
| 20260906094528 | 61 | 23 | 2.0 | 3.0 | 0.00 | 0.00 | 0.00 | 90 | 1018.6 |
| 20260906093040 | 61 | 23 | 3.0 | 3.0 | 0.00 | 0.00 | 0.00 | 90 | 1018.5 |
| 20260906091507 | 62 | 24 | 4.0 | 5.0 | 0.00 | 0.00 | 0.00 | 89 | 1018.3 |
| 20260906090014 | 62 | 57 | 5.0 | 5.0 | 0.00 | 0.00 | 0.00 | 89 | 1018.4 |
| 20260906084538 | 62 | 82 | 3.0 | 4.0 | 0.00 | 0.00 | 0.00 | 90 | 1018.5 |
| 20260906083028 | 62 | 78 | 3.0 | 4.0 | 0.00 | 0.00 | 0.00 | 91 | 1018.4 |
| 20260906081534 | 62 | 78 | 3.0 | 4.0 | 0.00 | 0.00 | 0.00 | 91 | 1018.6 |
| 20260906080014 | 63 | 64 | 2.0 | 4.0 | 0.00 | 0.00 | 0.00 | 91 | 1018.8 |
| 20260906074532 | 63 | 58 | 3.0 | 4.0 | 0.00 | 0.00 | 0.00 | 91 | 1018.8 |
| 20260906073029 | 63 | 37 | 4.0 | 4.0 | 0.00 | 0.00 | 0.00 | 88 | 1018.8 |
| 20260906070031 | 64 | 37 | 1.0 | 3.0 | 0.00 | 0.00 | 0.00 | 86 | 1018.4 |
| 20260906064517 | 64 | 37 | 3.0 | 4.0 | 0.00 | 0.00 | 0.00 | 85 | 1018.4 |
| 20260906063023 | 64 | 37 | 0.0 | 3.0 | 0.00 | 0.00 | 0.00 | 85 | 1018.3 |
| 20260906061506 | 64 | 37 | 3.0 | 4.0 | 0.00 | 0.00 | 0.00 | 85 | 1018.4 |
| 20260906060011 | 64 | 41 | 3.0 | 5.0 | 0.00 | 0.00 | 0.00 | 84 | 1018.2 |
| 20260906054533 | 64 | 38 | 5.0 | 7.0 | 0.00 | 0.00 | 0.00 | 85 | 1018.3 |
| 20260906053022 | 64 | 41 | 5.0 | 6.0 | 0.00 | 0.00 | 0.00 | 85 | 1018.2 |
| 20260906051504 | 64 | 53 | 5.0 | 6.0 | 0.00 | 0.00 | 0.00 | 85 | 1018.4 |
| 20260906050008 | 64 | 51 | 4.0 | 5.0 | 0.00 | 0.00 | 0.00 | 85 | 1018.5 |
| 20260906044512 | 65 | 54 | 4.0 | 5.0 | 0.00 | 0.00 | 0.00 | 84 | 1018.5 |
| 20260906043031 | 65 | 51 | 4.0 | 5.0 | 0.00 | 0.00 | 0.00 | 84 | 1018.7 |
| 20260906041535 | 65 | 44 | 5.0 | 7.0 | 0.00 | 0.00 | 0.00 | 83 | 1018.9 |
| 20260906040004 | 65 | 41 | 6.0 | 8.0 | 0.00 | 0.00 | 0.00 | 83 | 1018.7 |
| 20260906034510 | 65 | 41 | 7.0 | 11.0 | 0.00 | 0.00 | 0.00 | 84 | 1018.6 |
| 20260906033017 | 65 | 41 | 11.0 | 13.0 | 0.00 | 0.00 | 0.00 | 84 | 1018.4 |
| 20260906031519 | 64 | 49 | 9.0 | 11.0 | 0.00 | 0.00 | 0.00 | 86 | 1018.3 |
| 20260906030026 | 64 | 37 | 6.0 | 10.0 | 0.00 | 0.00 | 0.00 | 88 | 1018.3 |
| 20260906024531 | 63 | 46 | 5.0 | 7.0 | 0.00 | 0.00 | 0.00 | 90 | 1018.0 |
| 20260906023012 | 63 | 66 | 7.0 | 9.0 | 0.00 | 0.00 | 0.00 | 90 | 1017.8 |
| 20260906021518 | 63 | 51 | 9.0 | 11.0 | 0.00 | 0.00 | 0.00 | 90 | 1017.5 |
| 20260906020027 | 63 | 43 | 9.0 | 11.0 | 0.00 | 0.00 | 0.00 | 90 | 1017.6 |
| 20260906014538 | 63 | 59 | 9.0 | 11.0 | 0.00 | 0.00 | 0.00 | 89 | 1017.2 |
| 20260906013010 | 64 | 56 | 11.0 | 12.0 | 0.00 | 0.00 | 0.00 | 89 | 1017.0 |
| 20260906011517 | 63 | 36 | 9.0 | 11.0 | 0.00 | 0.00 | 0.00 | 89 | 1017.1 |
| 20260906010023 | 63 | 37 | 9.0 | 10.0 | 0.00 | 0.00 | 0.00 | 90 | 1016.9 |
| 20260906003030 | 63 | 42 | 10.0 | 12.0 | 0.00 | 0.00 | 0.00 | 91 | 1016.9 |
| 20260906001533 | 63 | 37 | 10.0 | 12.0 | 0.00 | 0.00 | 0.00 | 91 | 1017.1 |
| 20260906000019 | 63 | 50 | 9.0 | 12.0 | 0.00 | 0.00 | 0.00 | 91 | 1017.1 |
| 20260905234526 | 63 | 53 | 11.0 | 13.0 | 0.00 | 0.00 | 0.00 | 91 | 1017.4 |
| 20260905233035 | 62 | 42 | 9.0 | 11.0 | 0.00 | 0.00 | 0.00 | 91 | 1017.8 |
| 20260905231535 | 63 | 46 | 9.0 | 9.0 | 0.00 | 0.00 | 0.00 | 91 | 1017.8 |
| 20260905230019 | 63 | 46 | 8.0 | 9.0 | 0.00 | 0.00 | 0.00 | 91 | 1017.7 |
| 20260905224525 | 63 | 44 | 8.0 | 9.0 | 0.00 | 0.00 | 0.00 | 91 | 1017.8 |
| 20260905221537 | 63 | 39 | 5.0 | 6.0 | 0.00 | 0.00 | 0.00 | 91 | 1018.0 |
| 20260905220033 | 62 | 49 | 3.0 | 5.0 | 0.00 | 0.00 | 0.00 | 91 | 1018.0 |
| 20260905214535 | 62 | 359 | 3.0 | 6.0 | 0.00 | 0.00 | 0.00 | 92 | 1018.2 |
| 20260905213037 | 62 | 52 | 3.0 | 4.0 | 0.00 | 0.00 | 0.00 | 92 | 1018.1 |
| 20260905211534 | 62 | 74 | 1.0 | 2.0 | 0.00 | 0.00 | 0.00 | 91 | 1018.5 |
| 20260905210034 | 62 | 69 | 2.0 | 3.0 | 0.00 | 0.00 | 0.00 | 91 | 1018.0 |
| 20260905204536 | 62 | 58 | 2.0 | 3.0 | 0.00 | 0.00 | 0.00 | 91 | 1018.7 |
| 20260905203038 | 62 | 39 | 2.0 | 6.0 | 0.00 | 0.00 | 0.00 | 91 | 1018.6 |
| 20260905201530 | 62 | 56 | 5.0 | 8.0 | 0.00 | 0.00 | 0.00 | 91 | 1018.6 |
| 20260905200035 | 62 | 50 | 7.0 | 9.0 | 0.00 | 0.00 | 0.00 | 91 | 1018.0 |
| 20260905193023 | 62 | 44 | 10.0 | 12.0 | 0.00 | 0.00 | 0.00 | 90 | 1016.0 |
| 20260905191535 | 62 | 54 | 8.0 | 11.0 | 0.00 | 0.00 | 0.00 | 90 | 1018.7 |
| 20260905190046 | 62 | 44 | 10.0 | 12.0 | 0.00 | 0.00 | 0.00 | 91 | 1016.8 |
| 20260905184541 | 62 | 44 | 9.0 | 13.0 | 0.00 | 0.00 | 0.00 | 92 | 1018.9 |
| 20260905183032 | 62 | 60 | 14.0 | 17.0 | 0.00 | 0.00 | 0.00 | 92 | 1016.3 |
| 20260905181527 | 62 | 58 | 13.0 | 15.0 | 0.00 | 0.00 | 0.00 | 92 | 1018.8 |
| 20260905180004 | 62 | 60 | 13.0 | 16.0 | 0.00 | 0.00 | 0.00 | 92 | 1018.8 |
| 20260905174509 | 62 | 49 | 14.0 | 16.0 | 0.00 | 0.00 | 0.00 | 92 | 1018.9 |
| 20260905173011 | 62 | 49 | 14.0 | 18.0 | 0.00 | 0.00 | 0.00 | 94 | 1018.9 |
| 20260905171503 | 62 | 48 | 14.0 | 18.0 | 0.00 | 0.00 | 0.00 | 94 | 1018.9 |
| 20260905170008 | 62 | 41 | 16.0 | 19.0 | 0.00 | 0.00 | 0.00 | 94 | 1018.4 |